| time (UTC) | temp F | wind direction | speed knots | gust knots | rain 1hr in | rain 24hr in | rain mn in | humidity % | barometer mb |
| 20260505090142 | 52 | 228 | 1.7 | 5.2 | 0.00 | 0.00 | 0.00 | 90 | 1013.4 |
| 20260505084551 | 52 | 220 | 0.9 | 3.5 | 0.00 | 0.00 | 0.00 | 90 | 1013.4 |
| 20260505083054 | 52 | 220 | 0.9 | 4.3 | 0.00 | 0.00 | 0.00 | 90 | 1013.3 |
| 20260505081542 | 51 | 210 | 0.9 | 2.6 | 0.00 | 0.00 | 0.00 | 90 | 1013.2 |
| 20260505080045 | 52 | 228 | 0.0 | 0.9 | 0.00 | 0.00 | 0.00 | 89 | 1013.2 |
| 20260505074536 | 52 | 206 | 0.0 | 1.7 | 0.00 | 0.00 | 0.00 | 89 | 1013.1 |
| 20260505073036 | 52 | 230 | 0.0 | 1.7 | 0.00 | 0.00 | 0.00 | 89 | 1012.9 |
| 20260505071543 | 53 | 230 | 0.0 | 2.6 | 0.00 | 0.00 | 0.00 | 88 | 1012.6 |
| 20260505070030 | 53 | 209 | 0.0 | 2.6 | 0.00 | 0.00 | 0.00 | 88 | 1012.6 |
| 20260505064533 | 53 | 232 | 0.9 | 3.5 | 0.00 | 0.00 | 0.00 | 87 | 1012.5 |
| 20260505063027 | 54 | 276 | 0.0 | 0.9 | 0.00 | 0.00 | 0.00 | 87 | 1012.4 |
| 20260505061529 | 54 | 301 | 0.0 | 0.0 | 0.00 | 0.00 | 0.00 | 86 | 1012.2 |
| 20260505060033 | 54 | 260 | 0.9 | 6.1 | 0.00 | 0.00 | 0.00 | 85 | 1012.1 |
| 20260505054522 | 55 | 268 | 1.7 | 7.0 | 0.00 | 0.00 | 0.00 | 84 | 1011.8 |
| 20260505053025 | 55 | 254 | 2.6 | 7.8 | 0.00 | 0.00 | 0.00 | 83 | 1011.8 |
| 20260505051520 | 56 | 236 | 0.9 | 4.3 | 0.00 | 0.00 | 0.00 | 82 | 1011.7 |
| 20260505041517 | 59 | 240 | 2.6 | 9.6 | 0.00 | 0.00 | 0.00 | 76 | 1011.1 |
| 20260505040017 | 60 | 236 | 6.1 | 13.0 | 0.00 | 0.00 | 0.00 | 74 | 1011.0 |
| 20260505034516 | 61 | 262 | 2.6 | 9.6 | 0.00 | 0.00 | 0.00 | 71 | 1010.8 |
| 20260505033019 | 62 | 289 | 6.1 | 12.2 | 0.00 | 0.00 | 0.00 | 69 | 1010.5 |
| 20260505031517 | 64 | 276 | 3.5 | 10.4 | 0.00 | 0.00 | 0.00 | 66 | 1010.3 |
| 20260505030015 | 66 | 251 | 4.3 | 8.7 | 0.00 | 0.00 | 0.00 | 63 | 1010.1 |
| 20260505024514 | 68 | 273 | 2.6 | 9.6 | 0.00 | 0.00 | 0.00 | 61 | 1009.9 |
| 20260505023014 | 69 | 281 | 4.3 | 9.6 | 0.00 | 0.00 | 0.00 | 59 | 1009.7 |
| 20260505021514 | 69 | 259 | 3.5 | 9.6 | 0.00 | 0.00 | 0.00 | 57 | 1009.7 |
| 20260505020017 | 70 | 285 | 5.2 | 10.4 | 0.00 | 0.00 | 0.00 | 54 | 1009.6 |
| 20260505014520 | 72 | 270 | 4.3 | 13.0 | 0.00 | 0.00 | 0.00 | 53 | 1009.7 |
| 20260505013011 | 72 | 251 | 7.0 | 11.3 | 0.00 | 0.00 | 0.00 | 53 | 1009.6 |
| 20260505011511 | 73 | 312 | 6.1 | 13.9 | 0.00 | 0.00 | 0.00 | 52 | 1009.6 |
| 20260505010010 | 74 | 305 | 7.0 | 13.9 | 0.00 | 0.00 | 0.00 | 52 | 1009.6 |
| 20260505004514 | 75 | 280 | 6.1 | 12.2 | 0.00 | 0.00 | 0.00 | 51 | 1009.5 |
| 20260505003005 | 75 | 308 | 6.1 | 9.6 | 0.00 | 0.00 | 0.00 | 51 | 1009.5 |
| 20260505001505 | 76 | 289 | 2.6 | 9.6 | 0.00 | 0.00 | 0.00 | 52 | 1009.4 |
| 20260505000008 | 75 | 321 | 5.2 | 12.2 | 0.00 | 0.00 | 0.00 | 52 | 1009.4 |
| 20260504234504 | 75 | 262 | 7.0 | 11.3 | 0.00 | 0.00 | 0.00 | 51 | 1009.4 |
| 20260504233003 | 76 | 290 | 5.2 | 10.4 | 0.00 | 0.00 | 0.00 | 51 | 1009.5 |
| 20260504231502 | 76 | 280 | 4.3 | 11.3 | 0.00 | 0.00 | 0.00 | 51 | 1009.7 |
| 20260504230003 | 76 | 284 | 6.1 | 10.4 | 0.00 | 0.00 | 0.00 | 49 | 1009.8 |
| 20260504224502 | 76 | 207 | 6.1 | 10.4 | 0.00 | 0.00 | 0.00 | 49 | 1009.9 |
| 20260504223000 | 77 | 258 | 3.5 | 9.6 | 0.00 | 0.00 | 0.00 | 49 | 1009.9 |
| 20260504221603 | 76 | 266 | 4.3 | 10.4 | 0.00 | 0.00 | 0.00 | 50 | 1010.0 |
| 20260504220106 | 75 | 305 | 7.8 | 10.4 | 0.00 | 0.00 | 0.00 | 49 | 1010.1 |
| 20260504214606 | 76 | 308 | 6.1 | 10.4 | 0.00 | 0.00 | 0.00 | 48 | 1010.3 |
| 20260504213059 | 76 | 288 | 6.1 | 13.0 | 0.00 | 0.00 | 0.00 | 49 | 1010.3 |
| 20260504211557 | 75 | 12 | 2.6 | 10.4 | 0.00 | 0.00 | 0.00 | 49 | 1010.3 |
| 20260504210105 | 76 | 310 | 4.3 | 8.7 | 0.00 | 0.00 | 0.00 | 48 | 1010.3 |
| 20260504204611 | 76 | 306 | 2.6 | 8.7 | 0.00 | 0.00 | 0.00 | 47 | 1010.4 |
| 20260504203124 | 74 | 333 | 5.2 | 11.3 | 0.00 | 0.00 | 0.00 | 47 | 1010.6 |
| 20260504201553 | 75 | 334 | 3.5 | 11.3 | 0.00 | 0.00 | 0.00 | 50 | 1010.6 |
| 20260504200052 | 75 | 198 | 1.7 | 4.3 | 0.00 | 0.00 | 0.00 | 49 | 1010.7 |
| 20260504194550 | 74 | 266 | 4.3 | 9.6 | 0.00 | 0.00 | 0.00 | 50 | 1010.7 |
| 20260504193050 | 73 | 213 | 0.9 | 8.7 | 0.00 | 0.00 | 0.00 | 51 | 1010.8 |
| 20260504191545 | 72 | 253 | 7.0 | 8.7 | 0.00 | 0.00 | 0.00 | 52 | 1010.9 |
| 20260504190042 | 71 | 312 | 1.7 | 7.0 | 0.00 | 0.00 | 0.00 | 54 | 1011.0 |
| 20260504184541 | 71 | 318 | 4.3 | 8.7 | 0.00 | 0.00 | 0.00 | 53 | 1011.2 |
| 20260504183038 | 70 | 303 | 0.9 | 7.0 | 0.00 | 0.00 | 0.00 | 52 | 1011.2 |
| 20260504181534 | 70 | 200 | 3.5 | 7.8 | 0.00 | 0.00 | 0.00 | 52 | 1011.3 |
| 20260504180030 | 69 | 231 | 0.9 | 5.2 | 0.00 | 0.00 | 0.00 | 54 | 1011.2 |
| 20260504174527 | 68 | 254 | 0.9 | 4.3 | 0.00 | 0.00 | 0.00 | 56 | 1011.4 |
| 20260504173022 | 67 | 253 | 0.9 | 7.0 | 0.00 | 0.00 | 0.00 | 57 | 1011.3 |
| 20260504171519 | 66 | 206 | 1.7 | 7.0 | 0.00 | 0.00 | 0.00 | 59 | 1011.4 |
| 20260504160109 | 62 | 258 | 2.6 | 7.0 | 0.00 | 0.00 | 0.00 | 67 | 1011.0 |